DLH7EC EDDM-EDDL

Flight info

Callsign DLH7EC
Flight time 0h 47m
Altitude 32000
Route GIVMI1N GIVMI Y101 INBED DCT REKDI DCT LOHRE Z850 ARPEG/N0387F240 Z850 ADEMI T854 DOMUX DOMUX1A
Aircraft A320/M-SDE3FGHIRWY/LB1

Departure

Time 2026-05-04 19:39
Airport Munich Airport (EDDM)

Arrival

Time 2026-05-04 20:26
Airport Düsseldorf Airport (EDDL)
Time Latitude Longitude Altitude Speed Heading
2026-05-04 18:38 48.35656 11.79701 1486 ft 0 kts 83°
2026-05-04 19:25 48.35656 11.79695 1471 ft 2 kts 83°
2026-05-04 19:25 48.35654 11.79670 1471 ft 2 kts 83°
2026-05-04 19:25 48.35652 11.79644 1478 ft 2 kts 83°
2026-05-04 19:25 48.35650 11.79618 1485 ft 2 kts 83°
2026-05-04 19:26 48.35648 11.79594 1485 ft 2 kts 44°
2026-05-04 19:26 48.35634 11.79578 1485 ft 2 kts 33°
2026-05-04 19:26 48.35619 11.79567 1480 ft 2 kts 342°
2026-05-04 19:26 48.35615 11.79569 1485 ft 0 kts 339°
2026-05-04 19:30 48.35624 11.79562 1485 ft 5 kts 330°
2026-05-04 19:30 48.35657 11.79507 1485 ft 9 kts 305°
2026-05-04 19:30 48.35724 11.79475 1478 ft 13 kts 356°
2026-05-04 19:30 48.35825 11.79459 1482 ft 16 kts 354°
2026-05-04 19:31 48.35910 11.79478 1485 ft 7 kts 34°
2026-05-04 19:31 48.35958 11.79502 1485 ft 9 kts 355°
2026-05-04 19:31 48.36025 11.79494 1477 ft 12 kts 355°
2026-05-04 19:31 48.36061 11.79485 1475 ft 1 kts 351°
2026-05-04 19:32 48.36062 11.79485 1485 ft 0 kts 351°
2026-05-04 19:32 48.36072 11.79483 1485 ft 3 kts 353°
2026-05-04 19:33 48.36102 11.79478 1481 ft 9 kts 353°
2026-05-04 19:33 48.36179 11.79466 1475 ft 13 kts
2026-05-04 19:33 48.36223 11.79589 1472 ft 16 kts 83°
2026-05-04 19:33 48.36237 11.79778 1484 ft 20 kts 83°
2026-05-04 19:34 48.36255 11.80003 1485 ft 23 kts 83°
2026-05-04 19:34 48.36275 11.80263 1481 ft 26 kts 84°
2026-05-04 19:34 48.36297 11.80547 1478 ft 28 kts 84°
2026-05-04 19:34 48.36316 11.80812 1482 ft 25 kts 83°
2026-05-04 19:35 48.36338 11.81082 1474 ft 27 kts 83°
2026-05-04 19:35 48.36359 11.81360 1478 ft 25 kts 83°
2026-05-04 19:35 48.36380 11.81637 1474 ft 28 kts 83°
2026-05-04 19:35 48.36398 11.81889 1485 ft 14 kts 89°
2026-05-04 19:36 48.36441 11.82005 1485 ft 16 kts 360°
2026-05-04 19:36 48.36548 11.81986 1483 ft 12 kts 354°
2026-05-04 19:36 48.36566 11.81983 1478 ft 0 kts 355°
2026-05-04 19:37 48.36567 11.81983 1485 ft 1 kts 355°
2026-05-04 19:37 48.36620 11.81973 1481 ft 12 kts 352°
2026-05-04 19:37 48.36675 11.81942 1473 ft 5 kts 286°
2026-05-04 19:37 48.36673 11.81916 1485 ft 0 kts 264°
2026-05-04 19:38 48.36673 11.81914 1477 ft 3 kts 264°
2026-05-04 19:38 48.36646 11.81559 1485 ft 73 kts 263°
2026-05-04 19:38 48.36562 11.80465 1480 ft 135 kts 263°
2026-05-04 19:39 48.36436 11.78817 1628 ft 171 kts 264°
2026-05-04 19:39 48.36323 11.77070 2424 ft 165 kts 265°
2026-05-04 19:39 48.36196 11.75306 3034 ft 177 kts 264°
2026-05-04 19:39 48.36048 11.73379 3472 ft 195 kts 264°
2026-05-04 19:40 48.35882 11.71262 3867 ft 213 kts 264°
2026-05-04 19:40 48.35730 11.68927 4262 ft 235 kts 272°
2026-05-04 19:40 48.36236 11.66576 4894 ft 247 kts 301°
2026-05-04 19:40 48.37171 11.64295 5487 ft 265 kts 302°
2026-05-04 19:41 48.38171 11.61900 6257 ft 275 kts 302°
2026-05-04 19:41 48.39192 11.59456 7202 ft 277 kts 302°
2026-05-04 19:41 48.40210 11.57001 8166 ft 280 kts 302°
2026-05-04 19:41 48.41242 11.54462 8942 ft 287 kts 302°
2026-05-04 19:42 48.42433 11.52039 9755 ft 294 kts 316°
2026-05-04 19:42 48.44220 11.50334 10118 ft 317 kts 338°
2026-05-04 19:42 48.46334 11.49194 10779 ft 327 kts 340°
2026-05-04 19:42 48.48501 11.48058 11562 ft 333 kts 339°
2026-05-04 19:43 48.50721 11.46896 12185 ft 345 kts 339°
2026-05-04 19:43 48.53063 11.45658 12389 ft 368 kts 339°
2026-05-04 19:43 48.55536 11.44342 12787 ft 382 kts 339°
2026-05-04 19:43 48.58064 11.42989 13442 ft 388 kts 339°
2026-05-04 19:44 48.60619 11.41620 14154 ft 392 kts 339°
2026-05-04 19:44 48.63196 11.40236 14841 ft 395 kts 338°
2026-05-04 19:44 48.65793 11.38832 15487 ft 399 kts 338°
2026-05-04 19:44 48.68414 11.37405 16121 ft 402 kts 337°
2026-05-04 19:45 48.70940 11.35602 16708 ft 402 kts 327°
2026-05-04 19:45 48.73287 11.33278 17298 ft 404 kts 323°
2026-05-04 19:45 48.75625 11.30899 17885 ft 407 kts 323°
2026-05-04 19:45 48.77986 11.28500 18362 ft 409 kts 323°
2026-05-04 19:46 48.80356 11.26100 18673 ft 411 kts 323°
2026-05-04 19:46 48.82744 11.23690 18881 ft 413 kts 324°
2026-05-04 19:46 48.85277 11.21624 18940 ft 416 kts 334°
2026-05-04 19:46 48.88012 11.20131 18948 ft 418 kts 339°
2026-05-04 19:47 48.90767 11.18747 18954 ft 418 kts 339°
2026-05-04 19:47 48.93527 11.17357 18951 ft 418 kts 339°
2026-05-04 19:47 48.96306 11.15949 19385 ft 422 kts 339°
2026-05-04 19:47 48.99097 11.14527 19937 ft 425 kts 339°
2026-05-04 19:48 49.01904 11.13092 20454 ft 428 kts 339°
2026-05-04 19:48 49.04742 11.11640 20953 ft 430 kts 339°
2026-05-04 19:48 49.07587 11.10183 21431 ft 433 kts 339°
2026-05-04 19:48 49.10455 11.08717 21901 ft 436 kts 339°
2026-05-04 19:49 49.13345 11.07241 22352 ft 439 kts 339°
2026-05-04 19:49 49.16249 11.05760 22783 ft 442 kts 339°
2026-05-04 19:49 49.19169 11.04272 23198 ft 444 kts 339°
2026-05-04 19:49 49.22069 11.02791 23608 ft 447 kts 339°
2026-05-04 19:50 49.25064 11.01250 24017 ft 449 kts 339°
2026-05-04 19:50 49.28026 10.99715 24283 ft 450 kts 339°
2026-05-04 19:50 49.30953 10.98195 24610 ft 453 kts 339°
2026-05-04 19:50 49.33935 10.96626 25000 ft 454 kts 336°
2026-05-04 19:51 49.36798 10.94562 25354 ft 453 kts 327°
2026-05-04 19:51 49.39433 10.91813 25722 ft 452 kts 318°
2026-05-04 19:51 49.41718 10.88513 26042 ft 451 kts 309°
2026-05-04 19:51 49.43690 10.84847 26368 ft 452 kts 306°
2026-05-04 19:52 49.45674 10.81075 26705 ft 454 kts 306°
2026-05-04 19:52 49.47660 10.77303 27032 ft 456 kts 307°
2026-05-04 19:52 49.49684 10.73462 27353 ft 458 kts 306°
2026-05-04 19:52 49.51668 10.69691 27665 ft 459 kts 306°
2026-05-04 19:53 49.53708 10.65814 27961 ft 461 kts 306°
2026-05-04 19:53 49.55716 10.61992 28286 ft 462 kts 306°
2026-05-04 19:53 49.57726 10.58156 28708 ft 461 kts 306°
2026-05-04 19:53 49.59708 10.54367 29101 ft 459 kts 306°
2026-05-04 19:54 49.61707 10.50539 29505 ft 458 kts 306°
2026-05-04 19:54 49.63697 10.46719 29882 ft 456 kts 306°
2026-05-04 19:54 49.65666 10.42903 30249 ft 455 kts 304°
2026-05-04 19:54 49.67551 10.38994 30633 ft 452 kts 302°
2026-05-04 19:55 49.69343 10.35003 30995 ft 451 kts 301°
2026-05-04 19:55 49.71074 10.30976 31247 ft 449 kts 300°
2026-05-04 19:55 49.72779 10.26947 31494 ft 448 kts 300°
2026-05-04 19:55 49.74487 10.22927 31746 ft 447 kts 300°
2026-05-04 19:56 49.76206 10.18935 31924 ft 446 kts 301°
2026-05-04 19:56 49.79686 10.10982 31982 ft 446 kts 301°
2026-05-04 19:57 49.83180 10.03055 31982 ft 446 kts 301°
2026-05-04 19:57 49.86662 9.95109 31984 ft 446 kts 301°
2026-05-04 19:58 49.90126 9.87133 32000 ft 446 kts 300°
2026-05-04 19:58 49.93572 9.79148 32000 ft 446 kts 300°
2026-05-04 19:59 49.97033 9.71138 31993 ft 446 kts 300°
2026-05-04 19:59 50.00488 9.63139 31985 ft 446 kts 300°
2026-05-04 20:00 50.03904 9.55168 31984 ft 446 kts 300°
2026-05-04 20:00 50.07733 9.47509 31986 ft 451 kts 312°
2026-05-04 20:01 50.12527 9.41300 31988 ft 452 kts 317°
2026-05-04 20:01 50.17423 9.35116 31980 ft 453 kts 317°
2026-05-04 20:02 50.22336 9.28873 31975 ft 452 kts 316°
2026-05-04 20:02 50.27174 9.22705 31978 ft 452 kts 316°
2026-05-04 20:03 50.32040 9.16497 32003 ft 451 kts 316°
2026-05-04 20:03 50.36895 9.10293 32008 ft 449 kts 316°
2026-05-04 20:04 50.41738 9.04105 32006 ft 449 kts 316°
2026-05-04 20:04 50.46562 8.97918 32001 ft 447 kts 316°
2026-05-04 20:05 50.51371 8.91716 31986 ft 447 kts 316°
2026-05-04 20:05 50.56257 8.85546 31915 ft 449 kts 317°
2026-05-04 20:05 50.58716 8.82589 31525 ft 454 kts 318°
2026-05-04 20:06 50.61283 8.79564 31119 ft 456 kts 319°
2026-05-04 20:06 50.63838 8.76566 30720 ft 458 kts 318°
2026-05-04 20:06 50.66387 8.73559 30320 ft 459 kts 318°
2026-05-04 20:06 50.68906 8.70557 29925 ft 461 kts 318°
2026-05-04 20:07 50.71459 8.67490 29523 ft 461 kts 318°
2026-05-04 20:07 50.74007 8.64402 29125 ft 463 kts 318°
2026-05-04 20:07 50.76559 8.61288 28725 ft 464 kts 318°
2026-05-04 20:07 50.79117 8.58163 28321 ft 466 kts 318°
2026-05-04 20:08 50.81685 8.55034 27929 ft 467 kts 318°
2026-05-04 20:08 50.84260 8.51902 27524 ft 469 kts 318°
2026-05-04 20:08 50.86852 8.48752 27122 ft 470 kts 319°
2026-05-04 20:08 50.89451 8.45595 26718 ft 471 kts 319°
2026-05-04 20:09 50.92054 8.42424 26318 ft 473 kts 319°
2026-05-04 20:09 50.94660 8.39238 25921 ft 474 kts 319°
2026-05-04 20:09 50.97273 8.36037 25518 ft 475 kts 319°
2026-05-04 20:09 50.99894 8.32820 25139 ft 477 kts 319°
2026-05-04 20:10 51.02622 8.29808 24956 ft 480 kts 326°
2026-05-04 20:10 51.05548 8.27214 24998 ft 482 kts 328°
2026-05-04 20:10 51.08480 8.24615 25003 ft 482 kts 328°
2026-05-04 20:10 51.11405 8.22002 25002 ft 482 kts 327°
2026-05-04 20:11 51.14327 8.19389 24987 ft 482 kts 327°
2026-05-04 20:11 51.17247 8.16768 24997 ft 482 kts 327°
2026-05-04 20:11 51.20164 8.14140 24769 ft 478 kts 326°
2026-05-04 20:11 51.22819 8.11036 23621 ft 471 kts 312°
2026-05-04 20:12 51.24848 8.07067 22532 ft 453 kts 299°
2026-05-04 20:12 51.26339 8.02725 21033 ft 446 kts 295°
2026-05-04 20:12 51.27762 7.98296 20140 ft 445 kts 294°
2026-05-04 20:12 51.29154 7.93908 19326 ft 440 kts 294°
2026-05-04 20:13 51.30753 7.89762 18541 ft 440 kts 307°
2026-05-04 20:13 51.32981 7.86419 17802 ft 439 kts 318°
2026-05-04 20:13 51.35339 7.83345 17015 ft 436 kts 319°
2026-05-04 20:13 51.37692 7.80286 16207 ft 436 kts 319°
2026-05-04 20:14 51.40040 7.77222 15397 ft 435 kts 319°
2026-05-04 20:14 51.42360 7.74186 14736 ft 424 kts 319°
2026-05-04 20:14 51.44625 7.71213 14116 ft 420 kts 319°
2026-05-04 20:14 51.46876 7.68250 13490 ft 416 kts 319°
2026-05-04 20:15 51.49100 7.65317 12866 ft 412 kts 319°
2026-05-04 20:15 51.51303 7.62400 12236 ft 408 kts 319°
2026-05-04 20:15 51.53482 7.59501 11605 ft 405 kts 319°
2026-05-04 20:15 51.55638 7.56625 10970 ft 401 kts 319°
2026-05-04 20:16 51.57053 7.54732 10561 ft 399 kts 319°
2026-05-04 20:16 51.59046 7.51774 9934 ft 376 kts 308°
2026-05-04 20:16 51.60556 7.47098 9111 ft 342 kts 282°
2026-05-04 20:16 51.60686 7.43412 8487 ft 323 kts 260°
2026-05-04 20:17 51.59933 7.40134 7867 ft 308 kts 236°
2026-05-04 20:17 51.58676 7.37464 7384 ft 293 kts 231°
2026-05-04 20:17 51.57419 7.34990 6992 ft 282 kts 231°
2026-05-04 20:17 51.56580 7.33353 6748 ft 280 kts 230°
2026-05-04 20:18 51.55367 7.30996 6448 ft 273 kts 230°
2026-05-04 20:18 51.54154 7.28643 6197 ft 267 kts 230°
2026-05-04 20:18 51.52975 7.26359 5936 ft 264 kts 230°
2026-05-04 20:18 51.51776 7.24172 5699 ft 264 kts 226°
2026-05-04 20:19 51.50393 7.22174 5443 ft 263 kts 221°
2026-05-04 20:19 51.49144 7.20100 5194 ft 261 kts 231°
2026-05-04 20:19 51.48063 7.17809 4941 ft 254 kts 234°
2026-05-04 20:19 51.47046 7.15592 4684 ft 247 kts 233°
2026-05-04 20:20 51.46032 7.13420 4440 ft 240 kts 233°
2026-05-04 20:20 51.45039 7.11307 4191 ft 234 kts 233°
2026-05-04 20:20 51.44074 7.09255 3945 ft 229 kts 233°
2026-05-04 20:20 51.43124 7.07232 3699 ft 227 kts 233°
2026-05-04 20:21 51.42176 7.05219 3447 ft 224 kts 233°
2026-05-04 20:21 51.41237 7.03223 3189 ft 222 kts 233°
2026-05-04 20:21 51.39473 6.99487 3010 ft 196 kts 233°
2026-05-04 20:22 51.38678 6.97801 3014 ft 185 kts 233°
2026-05-04 20:22 51.37921 6.96200 2846 ft 176 kts 233°
2026-05-04 20:22 51.37196 6.94665 2653 ft 170 kts 233°
2026-05-04 20:22 51.36496 6.93186 2435 ft 161 kts 233°
2026-05-04 20:23 51.35842 6.91804 2229 ft 151 kts 232°
2026-05-04 20:23 51.35232 6.90511 2047 ft 141 kts 232°
2026-05-04 20:23 51.34652 6.89286 1857 ft 137 kts 232°
2026-05-04 20:23 51.34081 6.88082 1676 ft 135 kts 232°
2026-05-04 20:24 51.33513 6.86885 1484 ft 134 kts 231°
2026-05-04 20:24 51.32954 6.85700 1349 ft 134 kts 231°
2026-05-04 20:24 51.32381 6.84489 1184 ft 137 kts 231°
2026-05-04 20:24 51.31799 6.83264 958 ft 138 kts 231°
2026-05-04 20:25 51.31224 6.82059 770 ft 135 kts 231°
2026-05-04 20:25 51.30666 6.80888 610 ft 132 kts 231°
2026-05-04 20:25 51.30107 6.79717 416 ft 132 kts 232°
2026-05-04 20:25 51.29555 6.78537 237 ft 133 kts 231°
2026-05-04 20:26 51.29012 6.77407 133 ft 117 kts 232°
2026-05-04 20:26 51.28695 6.76742 128 ft 45 kts 232°
2026-05-04 20:26 51.28516 6.76367 126 ft 40 kts 233°
2026-05-04 20:26 51.28377 6.76098 127 ft 17 kts 208°
2026-05-04 20:27 51.28269 6.76039 129 ft 11 kts 175°
2026-05-04 20:27 51.28233 6.76055 129 ft 4 kts 160°
2026-05-04 20:27 51.28206 6.76074 129 ft 7 kts 152°
2026-05-04 20:27 51.28204 6.76184 126 ft 8 kts 58°
2026-05-04 20:28 51.28210 6.76197 125 ft 1 kts 52°
2026-05-04 20:28 51.28208 6.76223 129 ft 6 kts 121°
2026-05-04 20:28 51.28158 6.76286 135 ft 11 kts 141°
2026-05-04 20:28 51.28106 6.76404 128 ft 15 kts 140°
2026-05-04 20:29 51.28032 6.76481 130 ft 7 kts 148°
2026-05-04 20:29 51.28027 6.76521 129 ft 3 kts 82°
2026-05-04 20:29 51.28027 6.76525 127 ft 0 kts 83°